| time (UTC) | temp F | wind direction | speed MPH | gust MPH | rain 1hr in | rain 24hr in | rain mn in | humidity % | barometer mb |
| 20260904235023 | 64 | 302 | 0.0 | 3.0 | 0.00 | 0.00 | 0.00 | 1 | 1013.2 |
| 20260904234504 | 65 | 297 | 0.0 | 3.0 | 0.00 | 0.00 | 0.00 | 9 | 1013.2 |
| 20260904234004 | 64 | 33 | 0.0 | 4.0 | 0.00 | 0.00 | 0.00 | 16 | 1013.2 |
| 20260904233502 | 64 | 313 | 0.0 | 4.0 | 0.00 | 0.00 | 0.00 | 21 | 1013.3 |
| 20260904233100 | 64 | 12 | 0.0 | 6.0 | 0.00 | 0.00 | 0.00 | 20 | 1013.3 |
| 20260904232559 | 64 | 238 | 0.0 | 7.0 | 0.00 | 0.00 | 0.00 | 24 | 1013.3 |
| 20260904232056 | 64 | 91 | 1.0 | 7.0 | 0.00 | 0.00 | 0.00 | 21 | 1013.3 |
| 20260904231537 | 65 | 70 | 0.0 | 2.0 | 0.00 | 0.00 | 0.00 | 8 | 1013.3 |
| 20260904231036 | 65 | 320 | 0.0 | 4.0 | 0.00 | 0.00 | 0.00 | 7 | 1013.2 |
| 20260904230534 | 65 | 25 | 0.0 | 4.0 | 0.00 | 0.00 | 0.00 | 1 | 1013.4 |
| 20260904230033 | 65 | 307 | 0.0 | 1.0 | 0.00 | 0.00 | 0.00 | 2 | 1013.5 |
| 20260904225532 | 66 | 295 | 0.0 | 2.0 | 0.00 | 0.00 | 0.00 | 7 | 1013.5 |
| 20260904225033 | 67 | 321 | 0.0 | 3.0 | 0.00 | 0.00 | 0.00 | 16 | 1013.4 |
| 20260904224510 | 67 | 12 | 0.0 | 6.0 | 0.00 | 0.00 | 0.00 | 19 | 1013.3 |
| 20260904224010 | 67 | 59 | 1.0 | 6.0 | 0.00 | 0.00 | 0.00 | 19 | 1013.2 |
| 20260904223508 | 67 | 36 | 2.0 | 5.0 | 0.00 | 0.00 | 0.00 | 20 | 1013.2 |
| 20260904223006 | 67 | 291 | 0.0 | 5.0 | 0.00 | 0.00 | 0.00 | 16 | 1013.1 |
| 20260904222506 | 67 | 304 | 2.0 | 5.0 | 0.00 | 0.00 | 0.00 | 20 | 1013.0 |
| 20260904222007 | 68 | 90 | 0.0 | 2.0 | 0.00 | 0.00 | 0.00 | 19 | 1013.0 |
| 20260904221553 | 68 | 308 | 0.0 | 4.0 | 0.00 | 0.00 | 0.00 | 17 | 1013.0 |
| 20260904221047 | 68 | 275 | 0.0 | 4.0 | 0.00 | 0.00 | 0.00 | 16 | 1013.0 |
| 20260904220547 | 68 | 287 | 0.0 | 4.0 | 0.00 | 0.00 | 0.00 | 11 | 1013.0 |
| 20260904220048 | 68 | 305 | 0.0 | 4.0 | 0.00 | 0.00 | 0.00 | 9 | 1012.9 |
| 20260904215546 | 68 | 236 | 0.0 | 2.0 | 0.00 | 0.00 | 0.00 | 1 | 1013.0 |
| 20260904215046 | 67 | 298 | 0.0 | 2.0 | 0.00 | 0.00 | 0.00 | 1 | 1012.9 |
| 20260904214530 | 66 | 72 | 0.0 | 2.0 | 0.00 | 0.00 | 0.00 | 1 | 1013.0 |
| 20260904214029 | 66 | 274 | 0.0 | 3.0 | 0.00 | 0.00 | 0.00 | 1 | 1013.0 |
| 20260904213532 | 66 | 232 | 0.0 | 3.0 | 0.00 | 0.00 | 0.00 | 1 | 1013.0 |
| 20260904213037 | 66 | 236 | 0.0 | 4.0 | 0.00 | 0.00 | 0.00 | 20 | 1013.0 |
| 20260904212526 | 67 | 82 | 0.0 | 4.0 | 0.00 | 0.00 | 0.00 | 25 | 1012.9 |
| 20260904212024 | 68 | 47 | 0.0 | 2.0 | 0.00 | 0.00 | 0.00 | 23 | 1012.9 |
| 20260904211504 | 68 | 271 | 0.0 | 4.0 | 0.00 | 0.00 | 0.00 | 26 | 1012.9 |
| 20260904211003 | 69 | 231 | 2.0 | 4.0 | 0.00 | 0.00 | 0.00 | 29 | 1012.9 |
| 20260904210502 | 69 | 95 | 0.0 | 2.0 | 0.00 | 0.00 | 0.00 | 35 | 1012.9 |
| 20260904210101 | 68 | 249 | 0.0 | 1.0 | 0.00 | 0.00 | 0.00 | 37 | 1012.9 |
| 20260904205559 | 69 | 94 | 0.0 | 2.0 | 0.00 | 0.00 | 0.00 | 35 | 1012.8 |
| 20260904205058 | 70 | 177 | 0.0 | 2.0 | 0.00 | 0.00 | 0.00 | 34 | 1012.7 |
| 20260904204539 | 70 | 114 | 0.0 | 1.0 | 0.00 | 0.00 | 0.00 | 32 | 1012.7 |
| 20260904204039 | 69 | 341 | 0.0 | 3.0 | 0.00 | 0.00 | 0.00 | 31 | 1012.7 |
| 20260904203536 | 68 | 101 | 0.0 | 5.0 | 0.00 | 0.00 | 0.00 | 32 | 1012.8 |
| 20260904203036 | 69 | 217 | 0.0 | 4.0 | 0.00 | 0.00 | 0.00 | 30 | 1012.8 |
| 20260904202532 | 69 | 222 | 1.0 | 5.0 | 0.00 | 0.00 | 0.00 | 30 | 1012.8 |
| 20260904202034 | 69 | 231 | 0.0 | 5.0 | 0.00 | 0.00 | 0.00 | 29 | 1012.8 |
| 20260904201513 | 69 | 222 | 0.0 | 3.0 | 0.00 | 0.00 | 0.00 | 25 | 1012.7 |
| 20260904201011 | 69 | 127 | 0.0 | 5.0 | 0.00 | 0.00 | 0.00 | 26 | 1012.7 |
| 20260904200510 | 69 | 245 | 0.0 | 4.0 | 0.00 | 0.00 | 0.00 | 24 | 1012.6 |
| 20260904200009 | 69 | 214 | 1.0 | 4.0 | 0.00 | 0.00 | 0.00 | 22 | 1012.7 |
| 20260904195510 | 68 | 93 | 0.0 | 4.0 | 0.00 | 0.00 | 0.00 | 16 | 1012.7 |
| 20260904195007 | 68 | 84 | 0.0 | 6.0 | 0.00 | 0.00 | 0.00 | 16 | 1012.7 |
| 20260904194603 | 68 | 200 | 2.0 | 6.0 | 0.00 | 0.00 | 0.00 | 14 | 1012.8 |
| 20260904194045 | 68 | 58 | 0.0 | 0.0 | 0.00 | 0.00 | 0.00 | 12 | 1012.8 |
| 20260904193545 | 67 | 96 | 0.0 | 3.0 | 0.00 | 0.00 | 0.00 | 5 | 1012.8 |
| 20260904193043 | 68 | 239 | 0.0 | 3.0 | 0.00 | 0.00 | 0.00 | 1 | 1012.7 |
| 20260904192541 | 67 | 248 | 1.0 | 3.0 | 0.00 | 0.00 | 0.00 | 14 | 1012.7 |
| 20260904192043 | 68 | 218 | 0.0 | 3.0 | 0.00 | 0.00 | 0.00 | 9 | 1012.7 |
| 20260904191521 | 68 | 91 | 0.0 | 3.0 | 0.00 | 0.00 | 0.00 | 8 | 1012.6 |
| 20260904191020 | 67 | 245 | 0.0 | 0.0 | 0.00 | 0.00 | 0.00 | 13 | 1012.6 |
| 20260904190518 | 67 | 170 | 0.0 | 3.0 | 0.00 | 0.00 | 0.00 | 15 | 1012.8 |
| 20260904190016 | 66 | 103 | 0.0 | 3.0 | 0.00 | 0.00 | 0.00 | 17 | 1012.8 |
| 20260904185514 | 67 | 113 | 0.0 | 0.0 | 0.00 | 0.00 | 0.00 | 12 | 1012.8 |
| 20260904185017 | 66 | 63 | 0.0 | 1.0 | 0.00 | 0.00 | 0.00 | 11 | 1012.8 |
| 20260904184617 | 66 | 354 | 0.0 | 2.0 | 0.00 | 0.00 | 0.00 | 12 | 1012.7 |
| 20260904184053 | 66 | 113 | 0.0 | 2.0 | 0.00 | 0.00 | 0.00 | 8 | 1012.7 |
| 20260904183552 | 65 | 68 | 0.0 | 2.0 | 0.00 | 0.00 | 0.00 | 1 | 1012.8 |
| 20260904183050 | 65 | 86 | 0.0 | 2.0 | 0.00 | 0.00 | 0.00 | 5 | 1012.8 |
| 20260904182548 | 65 | 117 | 0.0 | 2.0 | 0.00 | 0.00 | 0.00 | 1 | 1012.8 |
| 20260904182047 | 65 | 85 | 0.0 | 2.0 | 0.00 | 0.00 | 0.00 | 1 | 1012.7 |
| 20260904181600 | 65 | 56 | 0.0 | 2.0 | 0.00 | 0.00 | 0.00 | 1 | 1012.7 |
| 20260904181027 | 65 | 20 | 0.0 | 2.0 | 0.00 | 0.00 | 0.00 | 1 | 1012.6 |
| 20260904180531 | 64 | 51 | 0.0 | 2.0 | 0.00 | 0.00 | 0.00 | 1 | 1012.5 |
| 20260904180041 | 63 | 41 | 0.0 | 1.0 | 0.00 | 0.00 | 0.00 | 1 | 1012.5 |
| 20260904175522 | 62 | 86 | 0.0 | 1.0 | 0.00 | 0.00 | 0.00 | 1 | 1012.5 |
| 20260904175022 | 61 | 46 | 0.0 | 1.0 | 0.00 | 0.00 | 0.00 | 1 | 1012.6 |
| 20260904174520 | 60 | 55 | 0.0 | 1.0 | 0.00 | 0.00 | 0.00 | 1 | 1012.7 |
| 20260904174003 | 59 | 47 | 0.0 | 1.0 | 0.00 | 0.00 | 0.00 | 1 | 1012.8 |
| 20260904173559 | 59 | 101 | 0.0 | 1.0 | 0.00 | 0.00 | 0.00 | 1 | 1012.7 |
| 20260904173058 | 58 | 134 | 0.0 | 1.0 | 0.00 | 0.00 | 0.00 | 1 | 1012.7 |
| 20260904172556 | 57 | 176 | 0.0 | 0.0 | 0.00 | 0.00 | 0.00 | 1 | 1012.7 |
| 20260904172056 | 57 | 117 | 0.0 | 0.0 | 0.00 | 0.00 | 0.00 | 1 | 1012.7 |
| 20260904171617 | 57 | 117 | 0.0 | 1.0 | 0.00 | 0.00 | 0.00 | 1 | 1012.6 |
| 20260904171037 | 57 | 117 | 0.0 | 1.0 | 0.00 | 0.00 | 0.00 | 1 | 1012.6 |
| 20260904170535 | 57 | 255 | 0.0 | 1.0 | 0.00 | 0.00 | 0.00 | 1 | 1012.4 |
| 20260904170033 | 57 | 68 | 0.0 | 0.0 | 0.00 | 0.00 | 0.00 | 1 | 1012.4 |
| 20260904165532 | 56 | 117 | 0.0 | 1.0 | 0.00 | 0.00 | 0.00 | 1 | 1012.3 |
| 20260904165030 | 56 | 117 | 0.0 | 1.0 | 0.00 | 0.00 | 0.00 | 1 | 1012.3 |
| 20260904164528 | 56 | 59 | 0.0 | 1.0 | 0.00 | 0.00 | 0.00 | 1 | 1012.4 |
| 20260904164009 | 56 | 63 | 0.0 | 1.0 | 0.00 | 0.00 | 0.00 | 1 | 1012.4 |
| 20260904163509 | 56 | 72 | 0.0 | 1.0 | 0.00 | 0.00 | 0.00 | 1 | 1012.4 |
| 20260904163008 | 57 | 70 | 0.0 | 1.0 | 0.00 | 0.00 | 0.00 | 1 | 1012.4 |
| 20260904162506 | 57 | 71 | 0.0 | 1.0 | 0.00 | 0.00 | 0.00 | 1 | 1012.4 |
| 20260904162004 | 56 | 68 | 0.0 | 1.0 | 0.00 | 0.00 | 0.00 | 1 | 1012.4 |
| 20260904161503 | 56 | 62 | 0.0 | 1.0 | 0.00 | 0.00 | 0.00 | 1 | 1012.3 |
| 20260904161044 | 55 | 61 | 0.0 | 1.0 | 0.00 | 0.00 | 0.00 | 1 | 1012.3 |
| 20260904160543 | 55 | 43 | 0.0 | 1.0 | 0.00 | 0.00 | 0.00 | 1 | 1012.2 |
| 20260904160042 | 55 | 43 | 0.0 | 1.0 | 0.00 | 0.00 | 0.00 | 1 | 1012.2 |
| 20260904155542 | 54 | 42 | 0.0 | 1.0 | 0.00 | 0.00 | 0.00 | 1 | 1012.2 |
| 20260904155038 | 54 | 37 | 0.0 | 1.0 | 0.00 | 0.00 | 0.00 | 1 | 1012.2 |
| 20260904154543 | 54 | 35 | 0.0 | 1.0 | 0.00 | 0.00 | 0.00 | 1 | 1012.2 |
| 20260904154022 | 54 | 47 | 0.0 | 1.0 | 0.00 | 0.00 | 0.00 | 1 | 1012.2 |
| 20260904153517 | 53 | 47 | 0.0 | 1.0 | 0.00 | 0.00 | 0.00 | 1 | 1012.2 |
| 20260904153015 | 53 | 31 | 0.0 | 1.0 | 0.00 | 0.00 | 0.00 | 1 | 1012.1 |
| 20260904152514 | 53 | 32 | 0.0 | 1.0 | 0.00 | 0.00 | 0.00 | 1 | 1012.1 |
| 20260904152012 | 53 | 30 | 0.0 | 1.0 | 0.00 | 0.00 | 0.00 | 1 | 1012.1 |
| 20260904151512 | 53 | 30 | 0.0 | 0.0 | 0.00 | 0.00 | 0.00 | 1 | 1012.1 |
| 20260904151052 | 53 | 30 | 0.0 | 0.0 | 0.00 | 0.00 | 0.00 | 1 | 1012.2 |
| 20260904150550 | 52 | 30 | 0.0 | 0.0 | 0.00 | 0.00 | 0.00 | 1 | 1012.0 |
| 20260904150049 | 0 | 0.0 | 0.0 | 0.00 | 0.00 | 0.00 | 1012.0 | ||
| 20260904145548 | 0 | 0.0 | 0.0 | 0.00 | 0.00 | 0.00 | 1012.1 | ||
| 20260904145049 | 0 | 0.0 | 0.0 | 0.00 | 0.00 | 0.00 | 1012.0 | ||
| 20260904144546 | 0 | 0.0 | 0.0 | 0.00 | 0.00 | 0.00 | 1011.9 | ||
| 20260904144027 | 0 | 0.0 | 0.0 | 0.00 | 0.00 | 0.00 | 1011.8 | ||
| 20260904143524 | 0 | 0.0 | 0.0 | 0.00 | 0.00 | 0.00 | 1011.6 | ||
| 20260904143022 | 0 | 0.0 | 0.0 | 0.00 | 0.00 | 0.00 | 1011.6 | ||
| 20260904142521 | 0 | 0.0 | 0.0 | 0.00 | 0.00 | 0.00 | 1011.6 | ||
| 20260904142020 | 0 | 0.0 | 0.0 | 0.00 | 0.00 | 0.00 | 1011.6 | ||
| 20260904141519 | 0 | 0.0 | 0.0 | 0.00 | 0.00 | 0.00 | 1011.4 | ||
| 20260904141059 | 0 | 0.0 | 0.0 | 0.00 | 0.00 | 0.00 | 1011.3 | ||
| 20260904140558 | 0 | 0.0 | 0.0 | 0.00 | 0.00 | 0.00 | 1011.3 | ||
| 20260904140057 | 0 | 0.0 | 0.0 | 0.00 | 0.00 | 0.00 | 1011.3 | ||
| 20260904135556 | 0 | 0.0 | 0.0 | 0.00 | 0.00 | 0.00 | 1011.3 | ||
| 20260904135055 | 0 | 0.0 | 0.0 | 0.00 | 0.00 | 0.00 | 1011.2 | ||
| 20260904134553 | 0 | 0.0 | 0.0 | 0.00 | 0.00 | 0.00 | 1011.1 | ||
| 20260904134037 | 0 | 0.0 | 0.0 | 0.00 | 0.00 | 0.00 | 1011.1 | ||
| 20260904133532 | 0 | 0.0 | 0.0 | 0.00 | 0.00 | 0.00 | 1011.2 | ||
| 20260904133046 | 0 | 0.0 | 0.0 | 0.00 | 0.00 | 0.00 | 1011.2 | ||
| 20260904132530 | 0 | 0.0 | 0.0 | 0.00 | 0.00 | 0.00 | 1011.1 | ||
| 20260904132029 | 0 | 0.0 | 0.0 | 0.00 | 0.00 | 0.00 | 1011.1 | ||
| 20260904131527 | 0 | 0.0 | 0.0 | 0.00 | 0.00 | 0.00 | 1011.0 | ||
| 20260904131010 | 0 | 0.0 | 0.0 | 0.00 | 0.00 | 0.00 | 1011.0 | ||
| 20260904130507 | 0 | 0.0 | 0.0 | 0.00 | 0.00 | 0.00 | 1011.0 | ||
| 20260904130005 | 0 | 0.0 | 0.0 | 0.00 | 0.00 | 0.00 | 1011.0 | ||
| 20260904125504 | 0 | 0.0 | 0.0 | 0.00 | 0.00 | 0.00 | 1010.9 | ||
| 20260904125003 | 0 | 0.0 | 0.0 | 0.00 | 0.00 | 0.00 | 1010.8 | ||
| 20260904124502 | 0 | 0.0 | 0.0 | 0.00 | 0.00 | 0.00 | 1010.8 | ||
| 20260904124059 | 0 | 0.0 | 0.0 | 0.00 | 0.00 | 0.00 | 1010.7 | ||
| 20260904123549 | 0 | 0.0 | 0.0 | 0.00 | 0.00 | 0.00 | 1010.6 | ||
| 20260904123047 | 0 | 0.0 | 0.0 | 0.00 | 0.00 | 0.00 | 1010.6 | ||
| 20260904122545 | 0 | 0.0 | 0.0 | 0.00 | 0.00 | 0.00 | 1010.6 | ||
| 20260904122043 | 0 | 0.0 | 0.0 | 0.00 | 0.00 | 0.00 | 1010.5 | ||
| 20260904121543 | 0 | 0.0 | 0.0 | 0.00 | 0.00 | 0.00 | 1010.5 | ||
| 20260904121041 | 0 | 0.0 | 0.0 | 0.00 | 0.00 | 0.00 | 1010.5 | ||
| 20260904120541 | 0 | 0.0 | 0.0 | 0.00 | 0.00 | 0.00 | 1010.5 | ||
| 20260904120053 | 0 | 0.0 | 0.0 | 0.00 | 0.00 | 0.00 | 1010.5 | ||
| 20260904115538 | 0 | 0.0 | 0.0 | 0.00 | 0.00 | 0.00 | 1010.5 | ||
| 20260904115038 | 0 | 0.0 | 0.0 | 0.00 | 0.00 | 0.00 | 1010.4 | ||
| 20260904114538 | 0 | 0.0 | 0.0 | 0.00 | 0.00 | 0.00 | 1010.3 | ||
| 20260904114038 | 0 | 0.0 | 0.0 | 0.00 | 0.00 | 0.00 | 1010.3 | ||
| 20260904113536 | 0 | 0.0 | 0.0 | 0.00 | 0.00 | 0.00 | 1010.4 | ||
| 20260904113037 | 0 | 0.0 | 0.0 | 0.00 | 0.00 | 0.00 | 1010.5 | ||
| 20260904112533 | 0 | 0.0 | 0.0 | 0.00 | 0.00 | 0.00 | 1010.4 | ||
| 20260904112032 | 0 | 0.0 | 0.0 | 0.00 | 0.00 | 0.00 | 1010.4 | ||
| 20260904111529 | 0 | 0.0 | 0.0 | 0.00 | 0.00 | 0.00 | 1010.3 | ||
| 20260904111029 | 0 | 0.0 | 0.0 | 0.00 | 0.00 | 0.00 | 1010.2 | ||
| 20260904110526 | 0 | 0.0 | 0.0 | 0.00 | 0.00 | 0.00 | 1010.2 | ||
| 20260904110027 | 0 | 0.0 | 0.0 | 0.00 | 0.00 | 0.00 | 1010.2 | ||
| 20260904105526 | 0 | 0.0 | 0.0 | 0.00 | 0.00 | 0.00 | 1010.1 | ||
| 20260904105028 | 0 | 0.0 | 0.0 | 0.00 | 0.00 | 0.00 | 1010.1 | ||
| 20260904104526 | 0 | 0.0 | 0.0 | 0.00 | 0.00 | 0.00 | 1010.1 | ||
| 20260904104025 | 0 | 0.0 | 0.0 | 0.00 | 0.00 | 0.00 | 1010.0 | ||
| 20260904103602 | 0 | 0.0 | 0.0 | 0.00 | 0.00 | 0.00 | 1010.0 | ||
| 20260904103101 | 0 | 0.0 | 0.0 | 0.00 | 0.00 | 0.00 | 1009.9 | ||
| 20260904102558 | 0 | 0.0 | 0.0 | 0.00 | 0.00 | 0.00 | 1009.9 | ||
| 20260904102055 | 0 | 0.0 | 0.0 | 0.00 | 0.00 | 0.00 | 1009.9 | ||
| 20260904101555 | 0 | 0.0 | 0.0 | 0.00 | 0.00 | 0.00 | 1009.9 | ||
| 20260904101053 | 0 | 0.0 | 0.0 | 0.00 | 0.00 | 0.00 | 1009.9 | ||
| 20260904100539 | 0 | 0.0 | 0.0 | 0.00 | 0.00 | 0.00 | 1009.9 | ||
| 20260904100047 | 0 | 0.0 | 0.0 | 0.00 | 0.00 | 0.00 | 1009.9 | ||
| 20260904095537 | 0 | 0.0 | 0.0 | 0.00 | 0.00 | 0.00 | 1010.0 | ||
| 20260904095037 | 0 | 0.0 | 0.0 | 0.00 | 0.00 | 0.00 | 1010.0 | ||
| 20260904094548 | 0 | 0.0 | 0.0 | 0.00 | 0.00 | 0.00 | 1010.0 | ||
| 20260904094032 | 0 | 0.0 | 0.0 | 0.00 | 0.00 | 0.00 | 1010.0 | ||
| 20260904093531 | 0 | 0.0 | 0.0 | 0.00 | 0.00 | 0.00 | 1010.0 | ||
| 20260904093029 | 0 | 0.0 | 0.0 | 0.00 | 0.00 | 0.00 | 1010.0 | ||
| 20260904092530 | 0 | 0.0 | 0.0 | 0.00 | 0.00 | 0.00 | 1010.0 | ||
| 20260904092029 | 0 | 0.0 | 0.0 | 0.00 | 0.00 | 0.00 | 1010.1 | ||
| 20260904091526 | 0 | 0.0 | 0.0 | 0.00 | 0.00 | 0.00 | 1010.1 | ||
| 20260904091025 | 0 | 0.0 | 0.0 | 0.00 | 0.00 | 0.00 | 1010.2 | ||
| 20260904090528 | 0 | 0.0 | 0.0 | 0.00 | 0.00 | 0.00 | 1010.1 | ||
| 20260904090021 | 0 | 0.0 | 0.0 | 0.00 | 0.00 | 0.00 | 1010.2 | ||
| 20260904085519 | 0 | 0.0 | 0.0 | 0.00 | 0.00 | 0.00 | 1010.2 | ||
| 20260904085022 | 0 | 0.0 | 0.0 | 0.00 | 0.00 | 0.00 | 1010.3 | ||
| 20260904084517 | 0 | 0.0 | 0.0 | 0.00 | 0.00 | 0.00 | 1010.2 | ||
| 20260904084015 | 0 | 0.0 | 0.0 | 0.00 | 0.00 | 0.00 | 1010.3 | ||
| 20260904083514 | 0 | 0.0 | 0.0 | 0.00 | 0.00 | 0.00 | 1010.3 | ||
| 20260904083012 | 0 | 0.0 | 0.0 | 0.00 | 0.00 | 0.00 | 1010.2 | ||
| 20260904082511 | 0 | 0.0 | 0.0 | 0.00 | 0.00 | 0.00 | 1010.2 | ||
| 20260904082009 | 0 | 0.0 | 0.0 | 0.00 | 0.00 | 0.00 | 1010.1 | ||
| 20260904081508 | 0 | 0.0 | 0.0 | 0.00 | 0.00 | 0.00 | 1010.2 | ||
| 20260904081006 | 0 | 0.0 | 0.0 | 0.00 | 0.00 | 0.00 | 1010.2 | ||
| 20260904080548 | 0 | 0.0 | 0.0 | 0.00 | 0.00 | 0.00 | 1010.1 | ||
| 20260904080047 | 0 | 0.0 | 0.0 | 0.00 | 0.00 | 0.00 | 1010.0 | ||
| 20260904075547 | 0 | 0.0 | 0.0 | 0.00 | 0.00 | 0.00 | 1010.0 | ||
| 20260904075046 | 0 | 0.0 | 0.0 | 0.00 | 0.00 | 0.00 | 1010.0 | ||
| 20260904074543 | 0 | 0.0 | 0.0 | 0.00 | 0.00 | 0.00 | 1010.0 | ||
| 20260904074041 | 0 | 0.0 | 0.0 | 0.00 | 0.00 | 0.00 | 1009.9 | ||
| 20260904073528 | 0 | 0.0 | 0.0 | 0.00 | 0.00 | 0.00 | 1009.9 | ||
| 20260904073033 | 0 | 0.0 | 0.0 | 0.00 | 0.00 | 0.00 | 1009.8 | ||
| 20260904072525 | 0 | 0.0 | 0.0 | 0.00 | 0.00 | 0.00 | 1009.9 | ||
| 20260904072024 | 0 | 0.0 | 0.0 | 0.00 | 0.00 | 0.00 | 1009.8 | ||
| 20260904071522 | 0 | 0.0 | 0.0 | 0.00 | 0.00 | 0.00 | 1009.8 | ||
| 20260904071021 | 0 | 0.0 | 0.0 | 0.00 | 0.00 | 0.00 | 1009.7 | ||
| 20260904070518 | 0 | 0.0 | 0.0 | 0.00 | 0.00 | 0.00 | 1009.6 | ||
| 20260904070035 | 0 | 0.0 | 0.0 | 0.00 | 0.00 | 0.00 | 1009.6 | ||
| 20260904065520 | 0 | 0.0 | 0.0 | 0.00 | 0.00 | 0.00 | 1009.7 | ||
| 20260904065016 | 52 | 26 | 0.0 | 0.0 | 0.00 | 0.00 | 0.00 | 1 | 1009.6 |
| 20260904064514 | 52 | 26 | 0.0 | 0.0 | 0.00 | 0.00 | 0.00 | 1 | 1009.6 |
| 20260904064012 | 52 | 26 | 0.0 | 0.0 | 0.00 | 0.00 | 0.00 | 1 | 1009.6 |
| 20260904063510 | 53 | 26 | 0.0 | 0.0 | 0.00 | 0.00 | 0.00 | 1 | 1009.7 |
| 20260904063009 | 53 | 26 | 0.0 | 0.0 | 0.00 | 0.00 | 0.00 | 1 | 1009.7 |
| 20260904062507 | 53 | 25 | 0.0 | 0.0 | 0.00 | 0.00 | 0.00 | 1 | 1009.7 |
| 20260904062006 | 53 | 25 | 0.0 | 0.0 | 0.00 | 0.00 | 0.00 | 1 | 1009.7 |
| 20260904061509 | 53 | 24 | 0.0 | 0.0 | 0.00 | 0.00 | 0.00 | 1 | 1009.6 |
| 20260904061006 | 53 | 24 | 0.0 | 0.0 | 0.00 | 0.00 | 0.00 | 1 | 1009.6 |
| 20260904060502 | 53 | 25 | 0.0 | 0.0 | 0.00 | 0.00 | 0.00 | 1 | 1009.5 |
| 20260904060120 | 53 | 24 | 0.0 | 0.0 | 0.00 | 0.00 | 0.00 | 1 | 1009.5 |
| 20260904055558 | 53 | 25 | 0.0 | 0.0 | 0.00 | 0.00 | 0.00 | 1 | 1009.5 |
| 20260904055057 | 53 | 25 | 0.0 | 0.0 | 0.00 | 0.00 | 0.00 | 1 | 1009.6 |
| 20260904054600 | 53 | 24 | 0.0 | 0.0 | 0.00 | 0.00 | 0.00 | 1 | 1009.6 |
| 20260904054055 | 54 | 25 | 0.0 | 0.0 | 0.00 | 0.00 | 0.00 | 1 | 1009.6 |
| 20260904053552 | 54 | 25 | 0.0 | 0.0 | 0.00 | 0.00 | 0.00 | 1 | 1009.6 |
| 20260904053110 | 54 | 24 | 0.0 | 0.0 | 0.00 | 0.00 | 0.00 | 1 | 1009.7 |
| 20260904052532 | 54 | 25 | 0.0 | 0.0 | 0.00 | 0.00 | 0.00 | 1 | 1009.6 |
| 20260904052031 | 54 | 24 | 0.0 | 0.0 | 0.00 | 0.00 | 0.00 | 1 | 1009.7 |
| 20260904051533 | 54 | 26 | 0.0 | 0.0 | 0.00 | 0.00 | 0.00 | 1 | 1009.7 |
| 20260904051028 | 54 | 26 | 0.0 | 0.0 | 0.00 | 0.00 | 0.00 | 1 | 1009.7 |
| 20260904050530 | 54 | 26 | 0.0 | 0.0 | 0.00 | 0.00 | 0.00 | 1 | 1009.6 |
| 20260904050023 | 54 | 26 | 0.0 | 0.0 | 0.00 | 0.00 | 0.00 | 1 | 1009.6 |
| 20260904045506 | 54 | 25 | 0.0 | 0.0 | 0.00 | 0.00 | 0.00 | 1 | 1009.5 |
| 20260904045005 | 54 | 26 | 0.0 | 0.0 | 0.00 | 0.00 | 0.00 | 1 | 1009.5 |
| 20260904044505 | 54 | 26 | 0.0 | 0.0 | 0.00 | 0.00 | 0.00 | 1 | 1009.4 |
| 20260904044001 | 54 | 24 | 0.0 | 0.0 | 0.00 | 0.00 | 0.00 | 1 | 1009.4 |
| 20260904043601 | 55 | 25 | 0.0 | 0.0 | 0.00 | 0.00 | 0.00 | 1 | 1009.5 |
| 20260904043048 | 55 | 25 | 0.0 | 0.0 | 0.00 | 0.00 | 0.00 | 1 | 1009.4 |
| 20260904042546 | 55 | 25 | 0.0 | 0.0 | 0.00 | 0.00 | 0.00 | 1 | 1009.4 |
| 20260904042045 | 55 | 25 | 0.0 | 0.0 | 0.00 | 0.00 | 0.00 | 1 | 1009.4 |
| 20260904041543 | 55 | 25 | 0.0 | 0.0 | 0.00 | 0.00 | 0.00 | 1 | 1009.4 |
| 20260904041041 | 55 | 24 | 0.0 | 0.0 | 0.00 | 0.00 | 0.00 | 1 | 1009.6 |
| 20260904040540 | 55 | 25 | 0.0 | 0.0 | 0.00 | 0.00 | 0.00 | 1 | 1009.5 |
| 20260904040047 | 55 | 25 | 0.0 | 0.0 | 0.00 | 0.00 | 0.00 | 1 | 1009.4 |
| 20260904035538 | 55 | 24 | 0.0 | 0.0 | 0.00 | 0.00 | 0.00 | 1 | 1009.4 |
| 20260904035035 | 55 | 25 | 0.0 | 0.0 | 0.00 | 0.00 | 0.00 | 1 | 1009.3 |
| 20260904034534 | 55 | 25 | 0.0 | 0.0 | 0.00 | 0.00 | 0.00 | 1 | 1009.3 |
| 20260904034033 | 55 | 25 | 0.0 | 0.0 | 0.00 | 0.00 | 0.00 | 1 | 1009.2 |
| 20260904033532 | 55 | 25 | 0.0 | 0.0 | 0.00 | 0.00 | 0.00 | 1 | 1009.2 |
| 20260904033030 | 55 | 24 | 0.0 | 0.0 | 0.00 | 0.00 | 0.00 | 1 | 1009.1 |
| 20260904032527 | 55 | 25 | 0.0 | 0.0 | 0.00 | 0.00 | 0.00 | 1 | 1009.0 |
| 20260904032027 | 55 | 25 | 0.0 | 0.0 | 0.00 | 0.00 | 0.00 | 1 | 1009.0 |
| 20260904031525 | 55 | 25 | 0.0 | 0.0 | 0.00 | 0.00 | 0.00 | 1 | 1008.9 |
| 20260904031023 | 55 | 25 | 0.0 | 0.0 | 0.00 | 0.00 | 0.00 | 1 | 1008.9 |
| 20260904030524 | 56 | 25 | 0.0 | 0.0 | 0.00 | 0.00 | 0.00 | 1 | 1008.8 |
| 20260904030022 | 56 | 25 | 0.0 | 0.0 | 0.00 | 0.00 | 0.00 | 1 | 1008.7 |
| 20260904025520 | 56 | 25 | 0.0 | 0.0 | 0.00 | 0.00 | 0.00 | 1 | 1008.7 |
| 20260904025017 | 56 | 25 | 0.0 | 0.0 | 0.00 | 0.00 | 0.00 | 1 | 1008.7 |
| 20260904024516 | 56 | 24 | 0.0 | 0.0 | 0.00 | 0.00 | 0.00 | 1 | 1008.7 |
| 20260904024015 | 57 | 24 | 0.0 | 0.0 | 0.00 | 0.00 | 0.00 | 1 | 1008.7 |
| 20260904023514 | 57 | 25 | 0.0 | 0.0 | 0.00 | 0.00 | 0.00 | 1 | 1008.7 |
| 20260904023104 | 57 | 25 | 0.0 | 0.0 | 0.00 | 0.00 | 0.00 | 1 | 1008.7 |
| 20260904022554 | 58 | 24 | 0.0 | 0.0 | 0.00 | 0.00 | 0.00 | 1 | 1008.6 |
| 20260904022053 | 59 | 38 | 0.0 | 0.0 | 0.00 | 0.00 | 0.00 | 1 | 1008.6 |
| 20260904021550 | 59 | 39 | 0.0 | 0.0 | 0.00 | 0.00 | 0.00 | 1 | 1008.6 |
| 20260904021048 | 60 | 40 | 0.0 | 0.0 | 0.00 | 0.00 | 0.00 | 1 | 1008.6 |
| 20260904020549 | 60 | 65 | 0.0 | 0.0 | 0.00 | 0.00 | 0.00 | 1 | 1008.6 |
| 20260904020038 | 61 | 65 | 0.0 | 0.0 | 0.00 | 0.00 | 0.00 | 1 | 1008.5 |
| 20260904015532 | 61 | 26 | 0.0 | 0.0 | 0.00 | 0.00 | 0.00 | 1 | 1008.5 |
| 20260904015032 | 62 | 25 | 0.0 | 0.0 | 0.00 | 0.00 | 0.00 | 1 | 1008.4 |
| 20260904014530 | 62 | 24 | 0.0 | 2.0 | 0.00 | 0.00 | 0.00 | 1 | 1008.4 |
| 20260904014029 | 62 | 283 | 0.0 | 2.0 | 0.00 | 0.00 | 0.00 | 1 | 1008.3 |
| 20260904013526 | 62 | 316 | 0.0 | 2.0 | 0.00 | 0.00 | 0.00 | 1 | 1008.3 |
| 20260904013025 | 62 | 315 | 0.0 | 3.0 | 0.00 | 0.00 | 0.00 | 1 | 1008.3 |
| 20260904012525 | 62 | 240 | 0.0 | 1.0 | 0.00 | 0.00 | 0.00 | 1 | 1008.3 |
| 20260904012025 | 63 | 239 | 0.0 | 1.0 | 0.00 | 0.00 | 0.00 | 1 | 1008.3 |
| 20260904011521 | 63 | 112 | 0.0 | 2.0 | 0.00 | 0.00 | 0.00 | 1 | 1008.3 |
| 20260904011021 | 63 | 61 | 0.0 | 2.0 | 0.00 | 0.00 | 0.00 | 1 | 1008.3 |
| 20260904010521 | 63 | 300 | 0.0 | 1.0 | 0.00 | 0.00 | 0.00 | 1 | 1008.3 |
| 20260904010017 | 63 | 300 | 0.0 | 1.0 | 0.00 | 0.00 | 0.00 | 5 | 1008.3 |
| 20260904005515 | 63 | 301 | 0.0 | 1.0 | 0.00 | 0.00 | 0.00 | 16 | 1008.3 |
| 20260904005013 | 63 | 73 | 0.0 | 1.0 | 0.00 | 0.00 | 0.00 | 8 | 1008.3 |
| 20260904004512 | 64 | 73 | 0.0 | 1.0 | 0.00 | 0.00 | 0.00 | 1 | 1008.3 |
| 20260904004010 | 63 | 76 | 0.0 | 1.0 | 0.00 | 0.00 | 0.00 | 11 | 1008.3 |
| 20260904003512 | 64 | 117 | 0.0 | 0.0 | 0.00 | 0.00 | 0.00 | 1 | 1008.4 |
| 20260904003007 | 64 | 117 | 0.0 | 0.0 | 0.00 | 0.00 | 0.00 | 2 | 1008.4 |
| 20260904002507 | 63 | 115 | 0.0 | 0.0 | 0.00 | 0.00 | 0.00 | 7 | 1008.4 |
| 20260904002004 | 64 | 56 | 0.0 | 1.0 | 0.00 | 0.00 | 0.00 | 1 | 1008.5 |
| 20260904001502 | 63 | 53 | 0.0 | 1.0 | 0.00 | 0.00 | 0.00 | 1 | 1008.5 |
| 20260904001004 | 63 | 72 | 0.0 | 1.0 | 0.00 | 0.00 | 0.00 | 1 | 1008.6 |
| 20260904000601 | 63 | 75 | 0.0 | 1.0 | 0.00 | 0.00 | 0.00 | 1 | 1008.6 |
| 20260904000116 | 63 | 76 | 0.0 | 0.0 | 0.00 | 0.00 | 0.00 | 1 | 1008.6 |
| 20260903235546 | 63 | 76 | 0.0 | 1.0 | 0.00 | 0.00 | 0.00 | 1 | 1008.5 |